Simultaneous Nadir Overpasses (SNOs) Predictions

Prediction of SNOs between AQUA and NOAA-19 Satellite Orbit:

Table of predicted SNOs for the next 14.0 days since TLE Epoch: 10/11/2015
Index Date (AQUA) Time (AQUA) Lat,Lon (AQUA) SZA (AQUA ) Date (NOAA-19) Time (NOAA-19) Lat,Lon (NOAA-19) SZA (NOAA-19 ) Distance(km) Time Diff (sec)
1 10/12/2015 19:34:17 80.47,-148.37 89.30 10/12/2015 19:33:50 80.48,-148.43 89.32 1.33 27
2 10/12/2015 20:23:42 -80.44, 19.59 90.75 10/12/2015 20:24:44 -80.44, 19.52 90.76 1.43 62
3 10/15/2015 01:07:59 -80.45, -51.63 89.91 10/15/2015 01:08:00 -80.45, -51.49 89.93 2.58 1
4 10/17/2015 05:52:17 -80.50,-123.23 89.03 10/17/2015 05:51:18 -80.50,-123.19 89.01 0.64 59
5 10/17/2015 06:41:42 80.44, 45.03 90.89 10/17/2015 06:42:22 80.45, 44.93 90.89 2.00 40
6 10/19/2
